Content
SEND FEEDBACK

Daily
Averages
Monthly
Summary
United States of America

GLENVIEW, ILLINOIS


Home > North America > United States > Illinois
Elevation: 653 feet     Latitude: 42 05N     Longitude: 087 50W

WEATHER
 
SELECT A DAY
Number of Records: 194,883;   Date Range: 7/8/95 - 7/29/14
 
SHARE

PRINT THIS DATA

[ ← Previous Day ]
WEATHER ALMANAC - AUGUST 18, 2013
[ Next Day → ]
[ °C ]   °F
Weather ElementAverageHighLow
Temperature70.8 °F80.1 °F (1:52 pm)60.1 °F (4:52 am)
Dewpoint57.4 °F64 °F (8:52 am)54 °F (4:52 pm)
Humidity65.4 %90 % (3:52 am)42 % (4:52 pm)
Barometer30.17 in30.22 in (6:52 am)30.13 in (5:52 pm)
Wind Speed3.2 mph10.4 mph (4:52 pm)
Weather ElementAverage
Visibility8.9 mi
Wind DirectionNNE (21.3 °)

Weather ElementTotal
Precipitation---
Cooling Degree Days5.1 (Base 65)
Growing Degree Days20.1 (Base 50)
Averaged from 23 records on August 18, 2013
WEATHER CONDITIONS BREAKOUT
WIND DIRECTION BREAKOUT
WEATHER BY HOUR - AUGUST 18, 2013
[ °C ]   °F
Local TimeTemperatureDewpointHumidityBarometerVisibilityWind DirectionWind SpeedGust SpeedPrecipitationEventsConditions
1:52 AM63.0 °F59.0 °F87 %30.19 in9.0 miCalmClear
2:52 AM63.0 °F59.0 °F87 %30.19 in7.0 miCalmClear
3:52 AM61.0 °F57.9 °F90 %30.19 in6.0 miCalmClear
4:52 AM60.1 °F57.0 °F90 %30.19 in6.0 miCalmClear
5:52 AM60.1 °F57.0 °F90 %30.21 in6.0 miCalmClear
6:52 AM61.0 °F57.9 °F90 %30.22 in5.0 miCalmClear
7:52 AM66.9 °F61.0 °F81 %30.22 in7.0 miCalmClear
8:52 AM73.0 °F64.0 °F73 %30.22 in10.0 miNorth (10°)3.5 mphClear
9:52 AM77.0 °F57.9 °F52 %30.22 in10.0 miVariable3.5 mphPartly Cloudy
10:52 AM77.0 °F57.0 °F50 %30.22 in10.0 miVariable5.8 mphPartly Cloudy
11:52 AM78.1 °F55.0 °F45 %30.20 in10.0 miVariable6.9 mphPartly Cloudy
12:52 PM79.0 °F55.9 °F45 %30.19 in10.0 miSE (130°)9.2 mphPartly Cloudy
1:52 PM80.1 °F57.9 °F47 %30.17 in10.0 miESE (120°)8.1 mphClear
2:52 PM79.0 °F55.9 °F45 %30.16 in10.0 miVariable5.8 mphClear
3:52 PM79.0 °F55.0 °F44 %30.14 in10.0 miVariable6.9 mphClear
4:52 PM79.0 °F54.0 °F42 %30.14 in10.0 miENE (60°)10.4 mphClear
5:52 PM77.0 °F54.0 °F45 %30.13 in10.0 miEast (80°)8.1 mphClear
6:52 PM75.0 °F55.0 °F50 %30.13 in10.0 miEast (90°)5.8 mphClear
7:52 PM73.0 °F55.9 °F55 %30.13 in10.0 miCalmClear
8:52 PM68.0 °F57.0 °F68 %30.14 in10.0 miCalmClear
9:52 PM68.0 °F57.9 °F70 %30.14 in10.0 miCalmClear
10:52 PM66.0 °F59.0 °F78 %30.14 in10.0 miCalmClear
11:52 PM64.9 °F59.0 °F81 %30.13 in9.0 miCalmClear
Hourly data recorded from KPWK, located miles away from Glenview, Illinois







STORIES FROM OUR PARTNERS